Location: Unspecified
(0.0000°N, 0.0000°E)
Time: 19:33:03
(UTC+00:00)

Vanguard 2 Rocket - Pass Details

Date: 08 December 2017
Orbit: 554 x 3327 km, 32.9° (Epoch: 20 July)

Event Time Altitude Azimuth Distance (km) Brightness Sun altitude
Rises 21:12:56 0° 289° (WNW) 5,835 11.4 -45.1°
Reaches altitude 10° 21:18:00 10° 304° (NW) 5,268 10.9 -46.1°
Enters shadow 21:27:30 21° 340° (NNW) 4,972 10.4 -48.1°
